Showing default

STARCLOUD-1, 66303

Orbit data source: Space-Track

STARCLOUD-1, 66303 is an American payload satellite in LEO that was launched on Sun, 02 Nov 2025 UTC via an FALCON 9 launch vehicle from the Air Force Eastern Test Range (AFETR). Payload-class satellites include a variety of spacecraft equipped with specific instruments for various scientific and technological missions. These include communications satellites like Starlink; space stations such as the ISS; scientific satellites like the Hubble; Earth observation satellites from companies like Planet Labs, Umbra, and HawkEye 360; GPS; miniature CubeSats for education and research; and military/defense satellites.

Loading next visibility...
Identifier
66303, 2025-248L
Orbit
LEO
Country
Flag of USUS
Related business
Manufacturer
Astro Digital
Mission
Operational Commercial Technology
Bus & Motor
CORVUS MICRO, Unknown motor
Mass
50 kg wet, 50 kg dry
Launch date (UTC)
2025-11-02 (9 months ago)
Launch vehicle
FALCON 9
Launch site
Air Force Eastern Test Range (AFETR)
Object type
Payload
Rocket body
Debris
Shape & HBR
Box, 0.3 m
Radar Cross Section
0.225 m², Medium (>0.1 m² and < 1m²)

Expand to show TLE details & history
Last TLE update: 22 hours ago

TLE from 22 hours ago
0 STARCLOUD-1
1 66303U 25248L   26202.30203949  .00003295  00000-0  15578-3 0  9999
2 66303  45.4016 297.1588 0006425 244.7392 115.2830 15.21601124 39733
Epoch: 2026-07-21T07:14Z
TLE epoch observation values (Epoch: 2026-07-21T07:14:56.211Z)
Latitude
0.00001°
Longitude
-110.64909°
Altitude
502.944 km
Speed
7.613 km/s
True Right ascension
19h 48m 38s
True Declination
0° 00' 00"
Sunlit
Object was in full shadow at epoch
Visualization orbit readout
Latitude
Unknown
Longitude
Unknown
Altitude
Unknown
Speed
Unknown
Apparent Right ascension
Unknown
Apparent Declination
Unknown
Sunlit
N/A
Visualization observer readout
Local Sidereal Time
18:39:19
Azimuth
Unknown
Elevation
Unknown
Doppler factor
Unknown
Orbital elements
Apogee altitude
506.969 km
Perigee altitude
498.127 km
Semi-major axis
6,880.685 km
Eccentricity
0.00064
Inclination
45.4016°
RAAN
297.1588°
Arg. of periapsis
244.7392°
True anomaly
115.34955°
Mean anomaly
115.283°
Eccentric anomaly
115.31628°
Mean motion
3.80273 °/min
Orbital period
94.67 mins
BSTAR
0.00015578
Loading maneuver chart data...
Computing Atmospheric mass density...
Loading historical data...
Loading historical data...
Loading historical data...
Loading historical data...
Loading historical data...
Loading historical data...
Loading historical data...

Documentation

Showing up to 5 results
|